Flag for United Kingdom Weather past 2 weeks in Glasgow, Scotland, United Kingdom

Now
48 °F

Partly sunny.


Feels Like: 43 °F
Forecast: 34 / 45 °F
Wind: 12 mph from Northwest

Location: Glasgow Airport

Current Time: Mar 4, 2015 at 1:59:19 PM

Latest Report: Mar 4, 2015 at 1:20 PM


Visibility: N/A

Pressure: 30.36 "Hg

Humidity: 62%

Dew point: 36 °F

Location of GlasgowLocation

Historic Weather in Glasgow — Graph

°F

Glasgow temperature yesterday

Maximum temperature yesterday: 41 °F (at 12:50 PM)
Minimum temperature yesterday: 34 °F (at 12:20 AM)
Average temperature yesterday: 37 °F

Past Weeks' High & Low Weather Summary

 TemperatureHumidityPressure
High52 °F (Feb 18, 11:50 AM)100% (Feb 21, 8:50 PM)30.45 "Hg (Feb 21, 8:50 PM)
Low28 °F (Feb 21, 10:20 PM)61% (Feb 24, 3:20 PM)28.62 "Hg (Feb 23, 4:20 PM)
Average40 °F85%29.55 "Hg
* Reported Feb 17 12:20 PM — Mar 4 12:50 PM, Glasgow, Weather by CustomWeather, © 2015

Note: Actual official high and low records may vary slightly from our data, if they occured in-between our weather recording intervals... More about our weather records

Advertising

Glasgow weather history for previous 24 hours

 ConditionsComfort  
Time TempWeatherWind HumidityBarometerVisibility
12:50 PM
Wed, Mar 4
46 °FPassing clouds.10 mph71%30.33 "HgN/A
12:20 PM45 °FPartly sunny.7 mph71%30.33 "HgN/A
11:50 AM46 °FScattered clouds.10 mph66%30.33 "HgN/A
11:20 AM46 °FPassing clouds.10 mph66%30.30 "HgN/A
10:50 AM45 °FScattered clouds.9 mph71%30.30 "HgN/A
10:20 AM45 °FScattered clouds.12 mph71%30.27 "HgN/A
9:50 AM45 °FScattered clouds.10 mph71%30.24 "HgN/A
9:20 AM43 °FQuite cool.6 mph76%30.24 "HgN/A
8:50 AM41 °FQuite cool.6 mph81%30.21 "HgN/A
8:20 AM39 °FPassing clouds.12 mph87%30.18 "HgN/A
7:50 AM39 °FLight rain. Broken clouds.13 mph81%30.18 "HgN/A
7:20 AM37 °FChilly.15 mph87%30.12 "HgN/A
6:50 AM37 °FChilly.10 mph81%30.12 "HgN/A
6:20 AM37 °FPassing clouds.14 mph81%30.09 "HgN/A
5:50 AM37 °FChilly.14 mph81%30.07 "HgN/A
5:20 AM37 °FChilly.14 mph81%30.07 "HgN/A
4:50 AM37 °FChilly.14 mph87%30.04 "HgN/A
4:20 AM37 °FChilly.12 mph87%30.01 "HgN/A
3:50 AM37 °FPassing clouds.12 mph81%30.01 "HgN/A
3:20 AM37 °FLight rain. Passing clouds.10 mph81%29.98 "HgN/A
2:50 AM36 °FPassing clouds.7 mph93%29.95 "HgN/A
2:20 AM37 °FLight rain. Passing clouds.12 mph87%29.95 "HgN/A
1:50 AM37 °FPassing clouds.1 mph87%29.95 "HgN/A
1:20 AM36 °FChilly.5 mph87%29.92 "HgN/A
12:50 AM36 °FPassing clouds.10 mph93%29.89 "HgN/A
12:20 AM37 °FLight rain. Partly cloudy.12 mph87%29.89 "HgN/A
11:50 PM
Tue, Mar 3
39 °FLight rain. Partly cloudy.15 mph81%29.86 "HgN/A
11:20 PM39 °FLight rain. Passing clouds.17 mph81%29.83 "HgN/A
10:50 PM39 °FPassing clouds.13 mph75%29.83 "HgN/A
10:20 PM37 °FPassing clouds.15 mph81%29.80 "HgN/A
9:50 PM39 °FLight rain. Passing clouds.16 mph81%29.80 "HgN/A
9:20 PM41 °FPassing clouds.16 mph76%29.77 "HgN/A
8:50 PM39 °FPassing clouds.12 mph81%29.74 "HgN/A
8:20 PM39 °FLight rain. Passing clouds.13 mph81%29.74 "HgN/A
7:50 PM39 °FPassing clouds.15 mph81%29.71 "HgN/A
7:20 PM39 °FPassing clouds.10 mph81%29.71 "HgN/A
6:50 PM39 °FLight rain. Passing clouds.14 mph81%29.68 "HgN/A
6:20 PM39 °FLight rain. Passing clouds.16 mph81%29.68 "HgN/A
5:50 PM39 °FThunderstorms. Partly sunny.18 mph87%29.65 "Hg4 mi
5:20 PM39 °FLight rain. Partly sunny.18 mph87%29.65 "Hg4 mi
4:50 PM39 °FPartly sunny.17 mph87%29.65 "HgN/A
4:20 PM39 °FLight rain. Cloudy.23 mph87%29.65 "HgN/A
3:50 PM37 °FLight rain. Cloudy.22 mph87%29.65 "HgN/A
3:20 PM39 °FLight rain. Partly sunny.22 mph75%29.65 "HgN/A
2:50 PM39 °FLight rain. Partly sunny.22 mph81%29.65 "HgN/A
2:20 PM39 °FChilly.22 mph75%29.65 "HgN/A
1:50 PM39 °FScattered clouds.26 mph75%29.65 "HgN/A
1:20 PM41 °FPassing clouds.25 mph76%29.65 "HgN/A
Weather by CustomWeather, © 2015

See weather overviewHow to use our weather pages